TimePDT,TemperatureF,Dew PointF,Humidity,Sea Level PressureIn,VisibilityMPH,Wind Direction,Wind SpeedMPH,Gust SpeedMPH,PrecipitationIn,Events,Conditions,WindDirDegrees,DateUTC
12:00 AM,44.6,30.2,57,30.32,30.0,West,6.9,-,N/A,,Partly Cloudy,260,2012-10-04 07:00:00
1:00 AM,44.6,30.2,57,30.32,30.0,Calm,Calm,-,N/A,,Clear,0,2012-10-04 08:00:00
2:00 AM,44.6,28.4,53,30.31,30.0,Calm,Calm,-,N/A,,Clear,0,2012-10-04 09:00:00
3:00 AM,39.2,30.2,70,30.31,30.0,Calm,Calm,-,N/A,,Clear,0,2012-10-04 10:00:00
4:00 AM,41.0,30.2,65,30.32,30.0,Calm,Calm,-,N/A,,Clear,0,2012-10-04 11:00:00
5:00 AM,40,30,57,30.32,28,Calm,Calm,,,,,,2012-10-04 12:00:00
5:00 AM,41.0,30.2,65,30.32,30.0,Calm,Calm,-,N/A,,Clear,0,2012-10-04 12:00:00
6:00 AM,39.2,30.2,70,30.32,30.0,Calm,Calm,-,N/A,,Clear,0,2012-10-04 13:00:00
7:00 AM,39.2,30.2,70,30.33,30.0,Calm,Calm,-,N/A,,Partly Cloudy,0,2012-10-04 14:00:00
8:00 AM,42.8,33.8,70,30.32,30.0,WNW,3.5,-,N/A,,Clear,290,2012-10-04 15:00:00
9:00 AM,50.0,37.4,62,30.34,30.0,West,4.6,-,N/A,,Partly Cloudy,270,2012-10-04 16:00:00
10:00 AM,55.4,35.6,47,30.34,30.0,WNW,4.6,-,N/A,,Partly Cloudy,300,2012-10-04 17:00:00
11:00 AM,59,37,33,30.34,28,North,4.6,,,,Clear,10,2012-10-04 18:00:00
11:00 AM,59.0,37.4,45,30.34,30.0,North,4.6,-,N/A,,Partly Cloudy,10,2012-10-04 18:00:00
12:00 PM,60.8,37.4,42,30.34,30.0,NNE,5.8,-,N/A,,Partly Cloudy,30,2012-10-04 19:00:00
1:00 PM,64.4,39.2,40,30.33,30.0,North,4.6,-,N/A,,Partly Cloudy,360,2012-10-04 20:00:00
2:00 PM,62.6,33.8,34,30.32,30.0,ENE,6.9,-,N/A,,Partly Cloudy,60,2012-10-04 21:00:00
3:00 PM,64.4,30.2,28,30.31,30.0,NE,6.9,-,N/A,,Partly Cloudy,50,2012-10-04 22:00:00
4:00 PM,66.2,32.0,28,30.30,30.0,Calm,Calm,-,N/A,,Scattered Clouds,0,2012-10-04 23:00:00
5:00 PM,65,32,18,30.28,28,West,5.8,,,,Clear,280,2012-10-05 00:00:00
5:00 PM,66.2,32.0,28,30.28,30.0,West,5.8,-,N/A,,Mostly Cloudy,280,2012-10-05 00:00:00
6:00 PM,59.0,32.0,36,30.28,30.0,WNW,4.6,-,N/A,,Mostly Cloudy,300,2012-10-05 01:00:00
7:00 PM,51.8,33.8,50,30.28,30.0,Calm,Calm,-,N/A,,Partly Cloudy,0,2012-10-05 02:00:00
8:00 PM,50.0,33.8,54,30.28,30.0,Calm,Calm,-,N/A,,Partly Cloudy,0,2012-10-05 03:00:00
9:00 PM,46.4,33.8,62,30.28,30.0,Calm,Calm,-,N/A,,Partly Cloudy,0,2012-10-05 04:00:00
10:00 PM,50.0,35.6,58,30.28,30.0,Calm,Calm,-,N/A,,Partly Cloudy,0,2012-10-05 05:00:00
11:00 PM,49,35,48,30.29,28,West,5.8,,,,Clear,270,2012-10-05 06:00:00
11:00 PM,50.0,35.6,58,30.29,30.0,West,5.8,-,N/A,,Partly Cloudy,280,2012-10-05 06:00:00